TimeEST,TemperatureF,Dew PointF,Humidity,Sea Level PressureIn,VisibilityMPH,Wind Direction,Wind SpeedMPH,Gust SpeedMPH,PrecipitationIn,Events,Conditions,WindDirDegrees,DateUTC
12:54 AM,28.0,21.0,75,30.11,10.0,Calm,Calm,-,N/A,,Clear,0,2013-01-24 05:54:00
1:54 AM,28.9,23.0,78,30.06,10.0,South,3.5,-,N/A,,Clear,170,2013-01-24 06:54:00
2:54 AM,41.0,33.1,73,30.03,10.0,SW,10.4,-,N/A,,Clear,230,2013-01-24 07:54:00
3:54 AM,42.1,32.0,67,30.00,10.0,WSW,10.4,-,N/A,,Clear,240,2013-01-24 08:54:00
4:54 AM,43.0,32.0,65,29.99,10.0,West,10.4,-,N/A,,Clear,270,2013-01-24 09:54:00
5:54 AM,43.0,32.0,65,29.99,10.0,West,8.1,-,N/A,,Clear,270,2013-01-24 10:54:00
6:54 AM,42.1,32.0,67,30.00,10.0,West,12.7,-,N/A,,Clear,270,2013-01-24 11:54:00
7:54 AM,42.1,32.0,67,30.04,8.0,WNW,11.5,-,N/A,,Mostly Cloudy,290,2013-01-24 12:54:00
8:54 AM,39.9,26.1,58,30.11,10.0,North,18.4,-,N/A,,Mostly Cloudy,350,2013-01-24 13:54:00
9:54 AM,39.0,21.9,50,30.17,10.0,North,18.4,-,N/A,,Mostly Cloudy,360,2013-01-24 14:54:00
10:54 AM,42.1,18.0,38,30.21,10.0,North,18.4,31.1,N/A,,Mostly Cloudy,360,2013-01-24 15:54:00
11:54 AM,39.0,17.1,41,30.23,10.0,North,17.3,31.1,N/A,,Mostly Cloudy,360,2013-01-24 16:54:00
12:54 PM,39.0,16.0,39,30.24,10.0,North,19.6,29.9,N/A,,Mostly Cloudy,350,2013-01-24 17:54:00
1:54 PM,37.0,12.9,37,30.27,10.0,North,24.2,33.4,N/A,,Mostly Cloudy,360,2013-01-24 18:54:00
2:54 PM,36.0,10.0,34,30.33,10.0,North,25.3,35.7,N/A,,Mostly Cloudy,360,2013-01-24 19:54:00
3:54 PM,35.1,5.0,28,30.37,10.0,North,24.2,33.4,N/A,,Scattered Clouds,10,2013-01-24 20:54:00
4:54 PM,32.0,3.9,31,30.41,10.0,North,18.4,29.9,N/A,,Clear,360,2013-01-24 21:54:00
5:54 PM,32.9,4.1,30,30.47,10.0,North,18.4,27.6,N/A,,Mostly Cloudy,10,2013-01-24 22:54:00
6:54 PM,28.9,3.9,35,30.50,10.0,NNE,12.7,-,N/A,,Clear,20,2013-01-24 23:54:00
7:54 PM,28.0,3.9,36,30.51,10.0,NNE,15.0,-,N/A,,Mostly Cloudy,20,2013-01-25 00:54:00
8:54 PM,28.0,5.0,38,30.52,10.0,NNE,9.2,-,N/A,,Mostly Cloudy,30,2013-01-25 01:54:00
9:54 PM,27.0,6.1,41,30.52,10.0,NNE,12.7,-,N/A,,Mostly Cloudy,20,2013-01-25 02:54:00
10:54 PM,27.0,7.0,43,30.51,10.0,NNE,12.7,-,N/A,,Clear,30,2013-01-25 03:54:00
11:54 PM,27.0,7.0,43,30.51,10.0,NNE,11.5,-,N/A,,Partly Cloudy,30,2013-01-25 04:54:00